Regional Weather Roundup
Issued by NWS

Home | Current Version | Previous Version | Graphics & Text | Print | Product List | Glossary On
Versions: 1 2 3 4 5 6 7 8 9 10 11 12 13 14 15 16 17 18 19 20 21 22 23 24 25 26 27 28 29 30 31 32 33 34 35 36 37 38 39 40 41 42 43 44 45 46 47 48 49 50
955
ASUS44 KLIX 232310
RWRLA
LOUISIANA WEATHER ROUNDUP
NATIONAL WEATHER SERVICE NEW ORLEANS LA
500 PM CST SUN NOV 23 2014

NOTE: "FAIR" INDICATES FEW OR NO CLOUDS BELOW 12,000 FEET WITH NO
      SIGNIFICANT WEATHER AND/OR OBSTRUCTIONS TO VISIBILITY.
      SKY/WX - SKY CONDITION AND SIGNIFICANT WEATHER.
      TMP - AIR TEMPERATURE.    DP   - DEWPOINT TEMPERATURE.
      RH  - RELATIVE HUMIDITY.  PRES - PRESSURE.
      HX  - HEAT INDEX.         WCI  - WIND CHILL INDEX.

*  THESE STATIONS ARE NOT NWS OR FAA STATIONS AND ARE NOT UNDER
   NWS QUALITY CONTROL.

LAZ040-048-061>063-065-066-069-240000-
SOUTHEAST LOUISIANA

CITY           SKY/WX    TMP DP  RH WIND       PRES   REMARKS
N.O. AUDUBON     N/A     70  61  73 MISG        N/A
N.O. INTL ARPT PTCLDY    72  58  61 SW13      29.66R
N.O. LAKEFRONT CLEAR     71  58  63 SW12      29.66R
N.O. DOWNTOWN* FAIR      72  57  60 S8G16     29.67S
SLIDELL        CLEAR     70  58  65 SW6       29.65R
BATON ROUGE    CLEAR     70  61  73 S15       29.61S
BOOTHVILLE     PTCLDY    67  66  97 S12       29.70S
BELLE CHASSE   PTCLDY    71  62  73 SW12      29.67R
BOGALUSA*        N/A     71  57  61 SW9G16    29.64S
NEW ROADS*     FAIR      71  60  68 S12       29.60S
GONZALES*      FAIR      71  64  79 SW9       29.64S
HAMMOND*       CLEAR     72  57  60 SW9G18    29.65S
HOUMA*         CLEAR     72  66  83 SW6G17    29.67R
PORT FOURCHON* PTCLDY    72  68  88 SW12      29.72R FOG

$$

LAZ041-044-053-054-240000-
SOUTHWEST LOUISIANA

CITY           SKY/WX    TMP DP  RH WIND       PRES   REMARKS
LAKE CHARLES   CLEAR     69  62  78 SW8       29.58S
LAFAYETTE      PTCLDY    71  64  78 S14G23    29.61S
PATTERSON      CLEAR     70  64  83 SW9G20    29.67S
SALT POINT       N/A     70  64  81 VRB5      29.64S
NEW IBERIA     MOCLDY    71  64  78 S12       29.63S
CHENAULT AIRPK NOT AVBL

$$

LAZ027-028-240000-
CENTRAL LOUISIANA

CITY           SKY/WX    TMP DP  RH WIND       PRES   REMARKS
FORT POLK      CLEAR     69  58  66 S10       29.53R
ALEXANDRIA INT CLEAR     70  58  65 S14       29.51S
ALEXANDRIA     CLEAR     69  58  67 S9        29.53S

$$

LAZ001-002-240000-
NORTHWEST LOUISIANA

CITY           SKY/WX    TMP DP  RH WIND       PRES   REMARKS
SHREVEPORT     CLEAR     70  56  61 S10       29.44R
BARKSDALE AFB  CLEAR     70  56  61 S13       29.45R
DTN SHREVEPORT CLEAR     70  54  56 S13       29.44R

$$

LAZ014-016-240000-
NORTHEAST LOUISIANA

CITY           SKY/WX    TMP DP  RH WIND       PRES   REMARKS
MONROE         CLEAR     67  60  78 S9        29.47F
TALLULAH       CLEAR     69  57  65 S7G18     29.51R

$$




USA.gov is the U.S. government's official web portal to all federal, state and local government web resources and services.